Regional Weather Roundup
Issued by NWS

Home | Current Version | Previous Version | Graphics & Text | Print | Product List | Glossary On
Versions: 1 2 3 4 5 6 7 8 9 10 11 12 13 14 15 16 17 18 19 20 21 22 23 24 25 26 27 28 29 30 31 32 33 34 35 36 37 38 39 40 41 42 43 44 45 46 47 48 49 50
000
ASUS43 KMKX 010621
RWRWI

WISCONSIN REGIONAL WEATHER ROUNDUP
NATIONAL WEATHER SERVICE MILWAUKEE/SULLIVAN WI
100 AM CDT MON SEP 01 2014

NOTE: "FAIR" INDICATES FEW OR NO CLOUDS BELOW 12,000 FEET WITH NO
SIGNIFICANT WEATHER AND/OR OBSTRUCTIONS TO VISIBILITY.

WIZ001-002-006>008-014>016-023>028-010700-
NORTHWEST WISCONSIN

CITY           SKY/WX    TMP DP  RH WIND       PRES   REMARKS
SUPERIOR ARPT  LGT RAIN  62  61  99 SW3       29.60F
6HR MIN TEMP:  61; 6HR MAX TEMP:  63; 6HR PCP:  0.04;

ASHLAND        CLOUDY    67  65  93 S7        29.63S
6HR MIN TEMP:  64; 6HR MAX TEMP:  76; 6HR PCP:  0.24;

HAYWARD        RAIN      67  66  97 S12G22    29.68R
6HR MIN TEMP:  66; 6HR MAX TEMP:  76; 6HR PCP:  0.71;

SIREN          LGT RAIN  65  64  96 S3        29.65S
6HR MIN TEMP:  65; 6HR MAX TEMP:  78; 6HR PCP:  0.59;

RICE LAKE      LGT RAIN  66  64  93 CALM      29.67F
6HR MIN TEMP:  66; 6HR MAX TEMP:  78;

LADYSMITH      LGT RAIN  67  64  90 SW5       29.72F
6HR MIN TEMP:  67; 6HR MAX TEMP:  76; 6HR PCP:  0.04;

EAU CLAIRE     LGT RAIN  67  66  97 E7        29.65F
6HR MIN TEMP:  66; 6HR MAX TEMP:  80; 6HR PCP:  0.55;

MENOMONIE      RAIN      66  65  96 SE8       29.65S
6HR MIN TEMP:  66; 6HR MAX TEMP:  79; 6HR PCP:  0.54;

NEW RICHMOND   LGT RAIN  65  65  97 CALM      29.66S
6HR MIN TEMP:  65; 6HR MAX TEMP:  78; 6HR PCP:  0.10;

OSCEOLA        LGT RAIN  65  65 100 SE6       29.66F
6HR MIN TEMP:  65; 6HR MAX TEMP:  81; 6HR PCP:  0.11;

$$

WIZ003>005-009-010-017-018-010700-
NORTH CENTRAL WISCONSIN

CITY           SKY/WX    TMP DP  RH WIND       PRES   REMARKS
WOODRUFF       RAIN      72  68  87 S15G21    29.76R
6HR MIN TEMP:  72; 6HR MAX TEMP:  72;

RHINELANDER    TSTM      65  65 100 W7        29.78S FOG
6HR MIN TEMP:  67; 6HR MAX TEMP:  71; 6HR PCP:  0.05;

EAGLE RIVER    LGT RAIN  66  66 100 S5        29.75S
LAND O LAKES   MOCLDY    69  66  89 S6        29.76S
6HR MIN TEMP:  67; 6HR MAX TEMP:  70;

PHILLIPS       RAIN      66  64  93 CALM      29.70F
6HR MIN TEMP:  66; 6HR MAX TEMP:  73; 6HR PCP:  0.03;

TOMAHAWK       CLOUDY    65  63  93 N8        29.76F
6HR MIN TEMP:  65; 6HR MAX TEMP:  71; 6HR PCP:  0.40;

MEDFORD        CLOUDY    67  66  98 SE6       29.72F
6HR MIN TEMP:  65; 6HR MAX TEMP:  73; 6HR PCP:  0.23;

MERRILL        MOCLDY    69  68  98 E6        29.74F
6HR MIN TEMP:  69; 6HR MAX TEMP:  74; 6HR PCP:  0.09;

$$

WIZ029-030-035-036-043>047-010700-
CENTRAL WISCONSIN

CITY           SKY/WX    TMP DP  RH WIND       PRES   REMARKS
WAUSAU         CLOUDY    70  67  90 SE7       29.73F
6HR MIN TEMP:  69; 6HR MAX TEMP:  75; 6HR PCP:  0.05;

MOSINEE        CLOUDY    68  68 100 SE8       29.75F
MARSHFIELD     MOCLDY    72  67  84 S12       29.73F
6HR MIN TEMP:  71; 6HR MAX TEMP:  76; 6HR PCP: TRACE;

STEVENS POINT  MOCLDY    71  66  84 SE7       29.76S
6HR MIN TEMP:  71; 6HR MAX TEMP:  75;

WAUPACA        FAIR      72  69  90 S3        29.78R
6HR MIN TEMP:  72; 6HR MAX TEMP:  79;

WAUTOMA        FAIR      73  69  87 SE7       29.77S
6HR MIN TEMP:  71; 6HR MAX TEMP:  79;

WISC RAPIDS    FAIR      74  67  78 S8        29.75S
6HR MIN TEMP:  73; 6HR MAX TEMP:  77;

CAMP DOUGLAS   FAIR      77  68  74 SW24G32   29.77R
6HR MIN TEMP:  74; 6HR MAX TEMP:  78;

$$

WIZ011>013-019>022-031-037>040-048>050-010700-
NORTHEAST WISCONSIN

CITY           SKY/WX    TMP DP  RH WIND       PRES   REMARKS
ANTIGO         CLOUDY    66  66  99 S6        29.79S FOG
6HR MIN TEMP:  66; 6HR MAX TEMP:  69; 6HR PCP:  0.04;

STURGEON BAY   FAIR      66  64  94 S13       29.80F
6HR MIN TEMP:  64; 6HR MAX TEMP:  66;

GREEN BAY      FAIR      68  66  93 SE8       29.78F
6HR MIN TEMP:  66; 6HR MAX TEMP:  68;

MANITOWOC      MOCLDY    67  67 100 S10       29.81F FOG
6HR MIN TEMP:  66; 6HR MAX TEMP:  68; 6HR PCP: TRACE;

APPLETON       FAIR      70  68  94 S7        29.79S
CLINTONVILLE   FAIR      68  64  88 S5        29.77F FOG
OSHKOSH        FAIR      73  69  87 S14       29.78F
6HR MIN TEMP:  68; 6HR MAX TEMP:  77;

$$

WIZ032>034-041-042-053>061-010700-
SOUTHWEST WISCONSIN

CITY           SKY/WX    TMP DP  RH WIND       PRES   REMARKS
LA CROSSE      RAIN      68  63  84 S15       29.75R
6HR MIN TEMP:  68; 6HR MAX TEMP:  83; 6HR PCP:  0.14;

SPARTA         LGT RAIN  70  59  66 SW10G22   29.77R
6HR MIN TEMP:  70; 6HR MAX TEMP:  80;

VIROQUA        CLOUDY    65  65 100 SW13G21   29.81R
6HR MIN TEMP:  65; 6HR MAX TEMP:  77; 6HR PCP:  0.12;

BOSCOBEL       LGT RAIN  69  62  78 SW8       29.81R
6HR MIN TEMP:  69; 6HR MAX TEMP:  83; 6HR PCP: TRACE;

PRAIRIE DU CHI RAIN      66  62  85 CALM      29.83F
6HR MIN TEMP:  66; 6HR MAX TEMP:  81; 6HR PCP:  0.22;

PLATTEVILLE    CLOUDY    71  62  74 W14G20    29.85R
6HR MIN TEMP:  71; 6HR MAX TEMP:  80;

$$

WIZ056-057-062-063-064-067-068-010700-
SOUTH CENTRAL WISCONSIN

CITY           SKY/WX    TMP DP  RH WIND       PRES   REMARKS
BARABOO/DELLS  FAIR      74  67  77 S10       29.78F
6HR MIN TEMP:  74; 6HR MAX TEMP:  78;

LONE ROCK      FAIR      78  64  61 W13G26    29.80R HX  80
6HR MIN TEMP:  76; 6HR MAX TEMP:  83;

WATERTOWN      FAIR      71  70  98 S6        29.81S
6HR MIN TEMP:  71; 6HR MAX TEMP:  78;

MADISON        FAIR      76  69  79 S12       29.80S
6HR MIN TEMP:  75; 6HR MAX TEMP:  81;

MIDDLETON      FAIR      75  71  86 S12G17    29.80F
6HR MIN TEMP:  75; 6HR MAX TEMP:  81;

MONROE         FAIR      73  70  88 S16G22    29.83R
JANESVILLE     FAIR      73  68  83 S7        29.81F
$$

WIZ051-052-058>065-066-070>072-010700-
SOUTHEAST WISCONSIN

CITY           SKY/WX    TMP DP  RH WIND       PRES   REMARKS
MILWAUKEE      FAIR      73  68  84 S8        29.83F
6HR MIN TEMP:  73; 6HR MAX TEMP:  77;

WAUKESHA       FAIR      68  66  94 S7        29.85S
MILWAUKEE/TIMM FAIR      72  64  78 S8        29.83F
RACINE         FAIR      74  68  81 S10       29.85F
6HR MIN TEMP:  71; 6HR MAX TEMP:  76;

BURLINGTON     FAIR      68  67  96 S5        29.83F
6HR MIN TEMP:  66; 6HR MAX TEMP:  76;

KENOSHA        FAIR      73  69  87 S9        29.84F
6HR MIN TEMP:  72; 6HR MAX TEMP:  79;

FOND DU LAC    FAIR      73  68  84 S12       29.80S
6HR MIN TEMP:  69; 6HR MAX TEMP:  74;

SHEBOYGAN      FAIR      67  65  93 S6        29.80F
6HR MIN TEMP:  66; 6HR MAX TEMP:  69;

WEST BEND      FAIR      70  64  83 S8        29.82S
JUNEAU         FAIR      71  68  90 S9        29.83R
6HR MIN TEMP:  71; 6HR MAX TEMP:  77;

$$

LSZ147-162-010700-
LAKE SUPERIOR

STATION/POSITION TIME  TEMP    WIND        PRES    WAVE
                       AIR SEA DIR/SP/G            HT/PER
                 (UTC) (F)     (DEG/KT/KT) (MB)    (FT/S)
W MID LAKE BUOY  0550   64 58  230/  8/ 12 1001.2F   3/ 4
DEVILS ISLAND    0600   67     170/ 14/ 21 1001.4F
PORT WING        0540   69     240/  5/  7 1002.7S
SAXON HARBOR     0500   67     190/  2/  6 1003.7
$$

LMZ867-665-643>646-010700-
LAKE MICHIGAN

STATION/POSITION TIME  TEMP    WIND        PRES    WAVE
                       AIR SEA DIR/SP/G            HT/PER
                 (UTC) (F)     (DEG/KT/KT) (MB)    (FT/S)
N MID LAKE BUOY  0550   66 65  160/ 10/ 10 1010.0F   1
NORTHPORT PIER   0500   66     160/  6/  9 1010.2R
KEWAUNEE LAKESHO 0600   65     190/  7/  9 1008.7F
SHEBOYGAN LAKESH 0600   66 51  180/ 13/ 13 1009.3F
ATWATER BUOY     0600   72     180/ 12/ 14 1010.9F
MILWAUKEE LAKESH 0600   71     160/  5/  6   N/A
S MID LAKE BUOY  0550   72 70  180/ 12/ 14 1011.0F   1/ 3
KENOSHA   LAKESH 0600   69     180/  9/ 10 1010.2F
$$

TC  - TEMPERATURE IN CELSIUS
VSB - VISIBILITY IN STATUTE MILES
WCI - WIND CHILL INDEX
HX  - HEAT INDEX



USA.gov is the U.S. government's official web portal to all federal, state and local government web resources and services.